| time (UTC) | temp F | wind direction | speed knots | gust knots | rain 1hr in | rain 24hr in | rain mn in | humidity % | barometer mb |
| 20260904184601 | 64 | 193 | 0.0 | 3.5 | 0.00 | 0.00 | 0.00 | 71 | 1014.3 |
| 20260904183057 | 63 | 226 | 0.0 | 2.6 | 0.00 | 0.00 | 0.00 | 73 | 1014.2 |
| 20260904181557 | 62 | 229 | 0.0 | 2.6 | 0.00 | 0.00 | 0.00 | 75 | 1014.2 |
| 20260904180058 | 62 | 150 | 0.0 | 2.6 | 0.00 | 0.00 | 0.00 | 75 | 1014.1 |
| 20260904174601 | 62 | 144 | 0.0 | 2.6 | 0.00 | 0.00 | 0.00 | 76 | 1014.2 |
| 20260904173125 | 62 | 0 | 0.0 | 1.7 | 0.00 | 0.00 | 0.00 | 77 | 1014.1 |
| 20260904171610 | 61 | 0 | 0.0 | 0.9 | 0.00 | 0.00 | 0.00 | 79 | 1014.2 |
| 20260904170100 | 60 | 0 | 0.0 | 1.7 | 0.00 | 0.00 | 0.00 | 80 | 1014.2 |
| 20260904164600 | 60 | 0 | 0.0 | 1.7 | 0.00 | 0.00 | 0.00 | 82 | 1014.1 |
| 20260904163059 | 59 | 186 | 0.0 | 0.9 | 0.00 | 0.00 | 0.00 | 84 | 1014.2 |
| 20260904161605 | 58 | 0 | 0.0 | 0.9 | 0.00 | 0.00 | 0.00 | 84 | 1014.2 |
| 20260904160055 | 57 | 0 | 0.0 | 0.9 | 0.00 | 0.00 | 0.00 | 85 | 1014.1 |
| 20260904154600 | 56 | 0 | 0.0 | 1.7 | 0.00 | 0.00 | 0.00 | 86 | 1014.0 |
| 20260904153104 | 56 | 0 | 0.0 | 0.9 | 0.00 | 0.00 | 0.00 | 87 | 1013.9 |
| 20260904151614 | 54 | 204 | 0.0 | 0.9 | 0.00 | 0.00 | 0.00 | 84 | 1013.8 |
| 20260904150125 | 54 | 0 | 0.0 | 0.0 | 0.00 | 0.00 | 0.00 | 81 | 1013.6 |
| 20260904144557 | 53 | 0 | 0.0 | 0.0 | 0.00 | 0.00 | 0.00 | 81 | 1013.4 |
| 20260904143104 | 53 | 0 | 0.0 | 0.0 | 0.00 | 0.00 | 0.00 | 81 | 1013.3 |
| 20260904141615 | 53 | 0 | 0.0 | 0.0 | 0.00 | 0.00 | 0.00 | 82 | 1013.2 |
| 20260904140105 | 52 | 0 | 0.0 | 0.0 | 0.00 | 0.00 | 0.00 | 82 | 1013.1 |
| 20260904134609 | 52 | 0 | 0.0 | 0.0 | 0.00 | 0.01 | 0.00 | 82 | 1013.1 |
| 20260904133110 | 53 | 0 | 0.0 | 0.0 | 0.00 | 0.01 | 0.00 | 83 | 1012.9 |
| 20260904131601 | 53 | 0 | 0.0 | 0.0 | 0.00 | 0.01 | 0.00 | 81 | 1012.8 |
| 20260904130100 | 52 | 0 | 0.0 | 0.0 | 0.00 | 0.01 | 0.00 | 81 | 1012.5 |
| 20260904124600 | 52 | 0 | 0.0 | 0.0 | 0.00 | 0.03 | 0.00 | 81 | 1012.4 |
| 20260904123104 | 52 | 0 | 0.0 | 0.0 | 0.00 | 0.03 | 0.00 | 80 | 1012.4 |
| 20260904121559 | 52 | 0 | 0.0 | 0.0 | 0.00 | 0.03 | 0.00 | 81 | 1012.4 |
| 20260904120107 | 52 | 0 | 0.0 | 0.0 | 0.00 | 0.03 | 0.00 | 81 | 1012.0 |
| 20260904114557 | 53 | 0 | 0.0 | 0.0 | 0.00 | 0.03 | 0.00 | 81 | 1012.1 |
| 20260904113110 | 53 | 0 | 0.0 | 0.0 | 0.00 | 0.03 | 0.00 | 81 | 1011.8 |
| 20260904111605 | 53 | 0 | 0.0 | 0.0 | 0.00 | 0.03 | 0.00 | 81 | 1011.8 |
| 20260904110101 | 53 | 0 | 0.0 | 0.0 | 0.00 | 0.03 | 0.00 | 81 | 1011.7 |
| 20260904104555 | 53 | 0 | 0.0 | 0.0 | 0.00 | 0.03 | 0.00 | 82 | 1011.8 |
| 20260904103108 | 53 | 0 | 0.0 | 0.0 | 0.00 | 0.03 | 0.00 | 82 | 1011.7 |
| 20260904101605 | 54 | 0 | 0.0 | 0.0 | 0.00 | 0.03 | 0.00 | 83 | 1011.6 |
| 20260904100059 | 54 | 0 | 0.0 | 0.0 | 0.00 | 0.03 | 0.00 | 83 | 1011.4 |
| 20260904094605 | 55 | 0 | 0.0 | 0.0 | 0.00 | 0.04 | 0.00 | 82 | 1011.5 |
| 20260904093109 | 55 | 0 | 0.0 | 0.0 | 0.00 | 0.04 | 0.00 | 81 | 1011.5 |
| 20260904091605 | 55 | 0 | 0.0 | 0.0 | 0.00 | 0.04 | 0.00 | 81 | 1011.5 |
| 20260904090105 | 54 | 0 | 0.0 | 0.0 | 0.00 | 0.04 | 0.00 | 82 | 1011.5 |
| 20260904084602 | 54 | 0 | 0.0 | 0.0 | 0.00 | 0.04 | 0.00 | 83 | 1011.3 |
| 20260904083102 | 55 | 0 | 0.0 | 0.0 | 0.00 | 0.04 | 0.00 | 83 | 1011.2 |
| 20260904081557 | 55 | 0 | 0.0 | 0.0 | 0.00 | 0.04 | 0.00 | 84 | 1011.0 |
| 20260904080100 | 55 | 0 | 0.0 | 0.0 | 0.00 | 0.04 | 0.00 | 84 | 1011.4 |
| 20260904074603 | 56 | 0 | 0.0 | 0.0 | 0.00 | 0.04 | 0.00 | 84 | 1011.5 |
| 20260904073101 | 56 | 0 | 0.0 | 0.0 | 0.00 | 0.04 | 0.00 | 85 | 1011.4 |
| 20260904071553 | 56 | 0 | 0.0 | 0.0 | 0.00 | 0.04 | 0.00 | 85 | 1011.4 |
| 20260904070106 | 56 | 0 | 0.0 | 0.0 | 0.00 | 0.04 | 0.00 | 86 | 1011.5 |
| 20260904064603 | 57 | 0 | 0.0 | 0.0 | 0.00 | 0.04 | 0.04 | 86 | 1011.5 |
| 20260904063111 | 57 | 0 | 0.0 | 0.0 | 0.00 | 0.04 | 0.04 | 86 | 1011.5 |
| 20260904061552 | 57 | 0 | 0.0 | 0.0 | 0.00 | 0.04 | 0.04 | 86 | 1011.4 |
| 20260904060056 | 57 | 0 | 0.0 | 0.0 | 0.00 | 0.04 | 0.04 | 86 | 1011.3 |
| 20260904054610 | 57 | 0 | 0.0 | 0.0 | 0.00 | 0.04 | 0.04 | 85 | 1011.2 |
| 20260904053055 | 58 | 0 | 0.0 | 0.0 | 0.00 | 0.04 | 0.04 | 84 | 1011.3 |
| 20260904051610 | 58 | 0 | 0.0 | 0.0 | 0.00 | 0.04 | 0.04 | 82 | 1011.3 |
| 20260904050106 | 59 | 0 | 0.0 | 0.0 | 0.00 | 0.04 | 0.04 | 81 | 1011.4 |
| 20260904044558 | 59 | 0 | 0.0 | 0.0 | 0.00 | 0.04 | 0.04 | 80 | 1011.4 |
| 20260904043058 | 59 | 0 | 0.0 | 0.0 | 0.00 | 0.04 | 0.04 | 79 | 1011.4 |
| 20260904041556 | 59 | 0 | 0.0 | 0.0 | 0.00 | 0.04 | 0.04 | 77 | 1011.4 |
| 20260904040105 | 60 | 0 | 0.0 | 0.0 | 0.00 | 0.04 | 0.04 | 76 | 1011.4 |
| 20260904034600 | 59 | 0 | 0.0 | 0.0 | 0.00 | 0.04 | 0.04 | 77 | 1011.3 |
| 20260904033059 | 60 | 0 | 0.0 | 0.0 | 0.00 | 0.04 | 0.04 | 75 | 1011.1 |
| 20260904031608 | 61 | 0 | 0.0 | 0.0 | 0.00 | 0.04 | 0.04 | 73 | 1011.0 |
| 20260904024557 | 62 | 0 | 0.0 | 0.9 | 0.00 | 0.04 | 0.04 | 70 | 1010.9 |
| 20260904023103 | 63 | 0 | 0.0 | 0.0 | 0.00 | 0.04 | 0.04 | 71 | 1010.8 |
| 20260904021608 | 63 | 0 | 0.0 | 0.0 | 0.00 | 0.04 | 0.04 | 69 | 1010.7 |
| 20260904014611 | 66 | 0 | 0.0 | 0.9 | 0.00 | 0.05 | 0.04 | 65 | 1010.3 |
| 20260904013100 | 68 | 21 | 0.0 | 2.6 | 0.00 | 0.05 | 0.04 | 56 | 1010.2 |
| 20260904011558 | 72 | 0 | 0.0 | 1.7 | 0.00 | 0.05 | 0.04 | 49 | 1010.3 |
| 20260904010056 | 73 | 0 | 0.0 | 1.7 | 0.00 | 0.05 | 0.04 | 49 | 1010.2 |
| 20260904004557 | 72 | 0 | 0.0 | 1.7 | 0.00 | 0.06 | 0.04 | 54 | 1010.3 |
| 20260904003104 | 70 | 180 | 0.0 | 0.0 | 0.00 | 0.06 | 0.04 | 58 | 1010.3 |
| 20260904001554 | 67 | 0 | 0.0 | 1.7 | 0.00 | 0.06 | 0.04 | 64 | 1010.4 |
| 20260903234558 | 67 | 162 | 0.0 | 1.7 | 0.00 | 0.10 | 0.04 | 62 | 1010.3 |
| 20260903233057 | 67 | 0 | 0.0 | 0.9 | 0.00 | 0.10 | 0.04 | 61 | 1010.2 |
| 20260903231601 | 66 | 0 | 0.0 | 0.9 | 0.00 | 0.10 | 0.04 | 60 | 1010.2 |
| 20260903230107 | 65 | 0 | 0.0 | 0.9 | 0.00 | 0.10 | 0.04 | 62 | 1010.3 |
| 20260903224613 | 65 | 155 | 0.0 | 0.0 | 0.00 | 0.16 | 0.04 | 61 | 1010.4 |
| 20260903223059 | 65 | 176 | 0.0 | 1.7 | 0.00 | 0.16 | 0.04 | 62 | 1010.5 |
| 20260903221555 | 65 | 0 | 0.0 | 1.7 | 0.00 | 0.16 | 0.04 | 63 | 1010.5 |
| 20260903220100 | 65 | 0 | 0.0 | 1.7 | 0.00 | 0.16 | 0.04 | 64 | 1010.6 |
| 20260903214611 | 65 | 0 | 0.0 | 1.7 | 0.00 | 0.20 | 0.04 | 65 | 1010.6 |
| 20260903213113 | 66 | 0 | 0.0 | 2.6 | 0.00 | 0.20 | 0.04 | 59 | 1010.5 |
| 20260903211608 | 68 | 140 | 0.9 | 4.3 | 0.00 | 0.20 | 0.04 | 55 | 1010.3 |
| 20260903210127 | 68 | 0 | 0.0 | 2.6 | 0.00 | 0.20 | 0.04 | 57 | 1010.3 |
| 20260903204603 | 67 | 214 | 0.9 | 5.2 | 0.00 | 0.22 | 0.04 | 58 | 1010.2 |
| 20260903203114 | 66 | 159 | 0.9 | 4.3 | 0.00 | 0.22 | 0.04 | 63 | 1010.1 |
| 20260903201602 | 64 | 168 | 0.0 | 3.5 | 0.00 | 0.22 | 0.04 | 65 | 1010.2 |
| 20260903200104 | 64 | 0 | 0.0 | 2.6 | 0.00 | 0.22 | 0.04 | 64 | 1010.2 |
| 20260903194603 | 64 | 0 | 0.0 | 2.6 | 0.00 | 0.25 | 0.04 | 63 | 1010.2 |
| 20260903193105 | 64 | 171 | 0.9 | 3.5 | 0.00 | 0.25 | 0.04 | 63 | 1010.2 |
| 20260903191602 | 63 | 154 | 0.9 | 3.5 | 0.00 | 0.25 | 0.04 | 65 | 1010.1 |